Staverton, United Kingdom

8:01 PM BST on April 30, 2017 (GMT +0100)
Gloucestershire

Weather History for EGBJ - June, 2013

Change the Weather History Date:

Thursday, June 27, 2013

  Actual Average Record
Temperature  
Mean Temperature 60 °F -  
Max Temperature 68 °F 69 °F 80 °F (2011)
Min Temperature 53 °F 60 °F 35 °F (2001)
Degree Days  
Heating Degree Days 4    
Growing Degree Days 10 (Base 50)    
Moisture  
Dew Point 48 °F    
Average Humidity 67    
Maximum Humidity 88    
Minimum Humidity 45    
Precipitation  
Precipitation 0.00 in - - ()
Sea Level Pressure  
Sea Level Pressure 30.33 in    
Wind  
Wind Speed 5 mph ()    
Max Wind Speed 14 mph    
Max Gust Speed -    
Visibility 5.7 miles    
Events Rain    
Averages and records for this station are not official NWS values.
T = Trace of Precipitation, MM = Missing Value Source: Averaged Metar Reports

Daily Weather History Graph

Daily Weather History Graph

Search for Another Location

Airport or City:

Trip Planner

Search our weather history database for the weather conditions in past years. The results will help you decide how hot, cold, wet, or windy it might be!

Date:

Astronomy

Jun. 27, 2013 Rise Set
Actual Time 4:51 AM BST 9:32 PM BST
Civil Twilight 4:02 AM BST 10:20 PM BST
Nautical Twilight 2:45 AM BST 11:37 PM BST
Astronomical Twilight 1:44 AM BST 12:39 AM BST
Moon 11:38 PM BST (6/27) 10:13 AM BST (6/27)
Length of Visible Light 18h 17m
Length of Day
16h 40m
Waning Gibbous, 78% of the Moon is Illuminated
Jun 27
Waning Gibbous
Jun 30
Last Quarter
Jul 8
New
Jul 16
First Quarter
Jul 22
Full

Hourly Weather History & Observations

Time (BST) Temp. Dew Point Humidity Pressure Visibility Wind Dir Wind Speed Gust Speed Precip Events Conditions
6:50 AM 53.6 °F 46.4 °F 77% 30.39 in - West 3.5 mph - N/A   Clear
7:20 AM 53.6 °F 48.2 °F 82% 30.39 in 6.2 mi West 3.5 mph - N/A   Partly Cloudy
7:50 AM 55.4 °F 48.2 °F 77% 30.39 in 6.2 mi West 3.5 mph - N/A   Partly Cloudy
8:20 AM 57.2 °F 48.2 °F 72% 30.39 in 6.2 mi West 4.6 mph - N/A   Partly Cloudy
8:50 AM 59.0 °F 48.2 °F 67% 30.39 in 6.2 mi WNW 8.1 mph - N/A   Partly Cloudy
9:20 AM 59.0 °F 48.2 °F 67% 30.36 in 6.2 mi NW 5.8 mph - N/A   Partly Cloudy
9:50 AM 59.0 °F 46.4 °F 63% 30.36 in 6.2 mi NNW 5.8 mph - N/A   Partly Cloudy
10:20 AM 60.8 °F 44.6 °F 55% 30.36 in 6.2 mi NW 4.6 mph - N/A   Partly Cloudy
10:50 AM 62.6 °F 46.4 °F 55% 30.36 in 6.2 mi WNW 4.6 mph - N/A   Partly Cloudy
11:20 AM 62.6 °F 46.4 °F 55% 30.36 in 6.2 mi WNW 5.8 mph - N/A   Partly Cloudy
11:50 AM 64.4 °F 44.6 °F 49% 30.36 in 6.2 mi WNW 5.8 mph - N/A   Partly Cloudy
12:20 PM 64.4 °F 42.8 °F 45% 30.33 in 6.2 mi WNW 6.9 mph - N/A   Partly Cloudy
12:50 PM 66.2 °F 44.6 °F 46% 30.33 in 6.2 mi NW 5.8 mph - N/A   Partly Cloudy
1:20 PM 66.2 °F 46.4 °F 49% 30.33 in 6.2 mi NW 4.6 mph - N/A   Partly Cloudy
1:50 PM 66.2 °F 46.4 °F 49% 30.33 in 6.2 mi WNW 6.9 mph - N/A   Partly Cloudy
2:20 PM 68.0 °F 46.4 °F 46% 30.30 in 6.2 mi WNW 5.8 mph - N/A Rain Light Rain
2:50 PM 68.0 °F 46.4 °F 46% 30.30 in 6.2 mi WNW 6.9 mph - N/A Rain Light Rain
3:20 PM 64.4 °F 48.2 °F 56% 30.30 in 6.2 mi West 13.8 mph - N/A Rain Light Rain
3:50 PM 60.8 °F 51.8 °F 72% 30.30 in 6.2 mi WNW 9.2 mph - N/A Rain Rain
4:20 PM 57.2 °F 51.8 °F 82% 30.30 in 5.6 mi WNW 9.2 mph - N/A Rain Rain
4:50 PM 55.4 °F 51.8 °F 88% 30.30 in 5.0 mi West 5.8 mph - N/A Rain Rain
5:20 PM 55.4 °F 51.8 °F 88% 30.27 in 5.0 mi West 4.6 mph - N/A Rain Rain
5:50 PM 53.6 °F 50.0 °F 88% 30.27 in 4.3 mi WSW 4.6 mph - N/A Rain Rain
6:20 PM 55.4 °F 50.0 °F 82% 30.27 in 5.0 mi West 2.3 mph - N/A Rain Rain
6:50 PM 55.4 °F 51.8 °F 88% 30.24 in 3.1 mi SW 4.6 mph - N/A Rain Rain
7:20 PM 55.4 °F 51.8 °F 88% 30.24 in 3.1 mi SSW 4.6 mph - N/A Rain Rain